TimeAEST,TemperatureF,Dew PointF,Humidity,Sea Level PressureIn,VisibilityMPH,Wind Direction,Wind SpeedMPH,Gust SpeedMPH,PrecipitationIn,Events,Conditions,WindDirDegrees,DateUTC
12:00 AM,64,61,87,30.05,,SSE,11.5,,,,,150,2013-08-03 14:00:00
12:00 AM,64.4,60.8,88,30.04,-9999.0,SSE,11.5,-,N/A,,Clear,150,2013-08-03 14:00:00
12:30 AM,64.4,60.8,88,30.04,-9999.0,SSE,12.7,-,N/A,,Clear,150,2013-08-03 14:30:00
1:00 AM,63,60,88,30.05,,South,5.8,,,,,190,2013-08-03 15:00:00
1:00 AM,62.6,60.8,94,30.04,-9999.0,South,5.8,-,N/A,,Clear,190,2013-08-03 15:00:00
1:30 AM,64.4,59.0,83,30.04,6.2,SE,9.2,-,N/A,,Partly Cloudy,140,2013-08-03 15:30:00
2:00 AM,62.6,59.0,88,30.01,6.2,SSE,8.1,-,N/A,,Partly Cloudy,150,2013-08-03 16:00:00
2:30 AM,62.6,59.0,88,30.01,6.2,SSE,9.2,-,N/A,,Partly Cloudy,150,2013-08-03 16:30:00
3:00 AM,62,59,87,30.02,,SSE,8.1,,,,,160,2013-08-03 17:00:00
3:00 AM,62.6,59.0,88,30.01,6.2,SSE,8.1,-,N/A,,Partly Cloudy,160,2013-08-03 17:00:00
3:30 AM,62.6,59.0,88,30.01,6.2,SSE,8.1,-,N/A,,Partly Cloudy,160,2013-08-03 17:30:00
4:00 AM,61,59,90,30.02,,West,3.5,,,,,260,2013-08-03 18:00:00
4:00 AM,60.8,59.0,94,30.01,-9999.0,West,3.5,-,N/A,,Clear,260,2013-08-03 18:00:00
4:30 AM,62.6,59.0,88,30.01,6.2,SSE,10.4,-,N/A,,Partly Cloudy,160,2013-08-03 18:30:00
5:00 AM,60.8,59.0,94,30.01,6.2,West,2.3,-,N/A,,Partly Cloudy,280,2013-08-03 19:00:00
5:30 AM,62.6,57.2,82,30.01,6.2,SSE,10.4,-,N/A,,Partly Cloudy,160,2013-08-03 19:30:00
6:00 AM,62,58,81,30.04,19,South,8.1,,,,Partly Cloudy,190,2013-08-03 20:00:00
6:00 AM,62.6,57.2,82,30.04,6.2,South,8.1,-,N/A,,Partly Cloudy,190,2013-08-03 20:00:00
6:30 AM,60.8,57.2,88,30.04,6.2,South,3.5,-,N/A,,Partly Cloudy,180,2013-08-03 20:30:00
7:00 AM,60,58,90,30.06,,SSW,4.6,,,,,200,2013-08-03 21:00:00
7:00 AM,60.8,57.2,88,30.04,6.2,SSW,4.6,-,N/A,,Partly Cloudy,200,2013-08-03 21:00:00
7:30 AM,62.6,59.0,88,30.06,6.2,SW,2.3,-,N/A,,Partly Cloudy,230,2013-08-03 21:30:00
8:00 AM,64.4,59.0,83,30.06,6.2,North,2.3,-,N/A,,Partly Cloudy,350,2013-08-03 22:00:00
8:30 AM,69.8,60.8,73,30.06,6.2,West,2.3,-,N/A,,Partly Cloudy,270,2013-08-03 22:30:00
9:00 AM,73,59,52,30.09,19,SSW,6.9,,,,Partly Cloudy,200,2013-08-03 23:00:00
9:00 AM,73.4,59.0,61,30.06,6.2,SSW,6.9,-,N/A,,Partly Cloudy,200,2013-08-03 23:00:00
9:30 AM,75.2,59.0,57,30.06,6.2,South,10.4,-,N/A,,Partly Cloudy,180,2013-08-03 23:30:00
10:00 AM,75,60,51,30.09,,South,10.4,,,,,180,2013-08-04 00:00:00
10:00 AM,75.2,60.8,61,30.06,6.2,South,10.4,-,N/A,,Partly Cloudy,180,2013-08-04 00:00:00
10:30 AM,77.0,60.8,57,30.06,6.2,South,12.7,-,N/A,,Partly Cloudy,170,2013-08-04 00:30:00
11:00 AM,77.0,60.8,57,30.06,6.2,SSE,10.4,-,N/A,,Partly Cloudy,160,2013-08-04 01:00:00
11:30 AM,78.8,55.4,44,30.04,6.2,SE,17.3,-,N/A,,Partly Cloudy,130,2013-08-04 01:30:00
12:00 PM,80,53,29,30.05,19,SE,16.1,,,,Partly Cloudy,130,2013-08-04 02:00:00
12:00 PM,80.6,53.6,39,30.04,6.2,SE,16.1,-,N/A,,Partly Cloudy,130,2013-08-04 02:00:00
12:30 PM,78.8,53.6,42,30.04,6.2,SE,16.1,-,N/A,,Partly Cloudy,130,2013-08-04 02:30:00
1:00 PM,81,51,25,30.03,,ESE,16.1,,,,,120,2013-08-04 03:00:00
1:00 PM,80.6,51.8,37,30.01,6.2,ESE,16.1,-,N/A,,Partly Cloudy,120,2013-08-04 03:00:00
1:30 PM,80.6,51.8,37,30.01,6.2,SSE,16.1,-,N/A,,Partly Cloudy,150,2013-08-04 03:30:00
2:00 PM,78.8,51.8,39,29.98,6.2,SE,19.6,-,N/A,,Partly Cloudy,140,2013-08-04 04:00:00
2:30 PM,80.6,55.4,42,29.98,6.2,SE,17.3,-,N/A,,Partly Cloudy,130,2013-08-04 04:30:00
3:00 PM,79,55,34,29.98,19,SE,17.3,,,,Partly Cloudy,130,2013-08-04 05:00:00
3:00 PM,78.8,55.4,44,29.98,6.2,SE,17.3,-,N/A,,Partly Cloudy,130,2013-08-04 05:00:00
3:30 PM,77.0,55.4,47,29.98,6.2,SE,16.1,-,N/A,,Partly Cloudy,130,2013-08-04 05:30:00
4:00 PM,77,56,39,29.99,,SE,17.3,,,,,130,2013-08-04 06:00:00
4:00 PM,77.0,57.2,50,29.98,6.2,SE,17.3,-,N/A,,Partly Cloudy,130,2013-08-04 06:00:00
4:30 PM,77.0,55.4,47,29.98,6.2,SE,16.1,-,N/A,,Partly Cloudy,130,2013-08-04 06:30:00
5:00 PM,75.2,57.2,53,29.98,6.2,SE,17.3,-,N/A,,Partly Cloudy,130,2013-08-04 07:00:00
5:30 PM,73.4,57.2,57,30.01,6.2,SE,13.8,-,N/A,,Partly Cloudy,140,2013-08-04 07:30:00
6:00 PM,72,58,53,30.01,,SSE,11.5,,,,,160,2013-08-04 08:00:00
6:00 PM,71.6,59.0,64,30.01,6.2,SSE,11.5,-,N/A,,Partly Cloudy,150,2013-08-04 08:00:00
6:30 PM,69.8,59.0,68,30.01,6.2,SSE,10.4,-,N/A,,Partly Cloudy,160,2013-08-04 08:30:00
7:00 PM,69,58,60,30.04,,South,9.2,,,,,170,2013-08-04 09:00:00
7:00 PM,69.8,59.0,68,30.04,6.2,South,9.2,-,N/A,,Partly Cloudy,170,2013-08-04 09:00:00
7:30 PM,68.0,59.0,73,30.04,6.2,South,8.1,-,N/A,,Partly Cloudy,180,2013-08-04 09:30:00
8:00 PM,69.8,59.0,68,30.04,6.2,South,9.2,-,N/A,,Partly Cloudy,190,2013-08-04 10:00:00
8:30 PM,69.8,57.2,64,30.06,-9999.0,South,6.9,-,N/A,,Clear,180,2013-08-04 10:30:00
9:00 PM,69,58,59,30.08,,SSW,5.8,,,,,200,2013-08-04 11:00:00
9:00 PM,68.0,57.2,68,30.06,-9999.0,SSW,5.8,-,N/A,,Clear,200,2013-08-04 11:00:00
9:30 PM,68.0,57.2,68,30.06,-9999.0,South,6.9,-,N/A,,Clear,170,2013-08-04 11:30:00
10:00 PM,65,57,68,30.09,,WNW,3.5,,,,,300,2013-08-04 12:00:00
10:00 PM,66.2,57.2,73,30.06,-9999.0,WNW,3.5,-,N/A,,Clear,300,2013-08-04 12:00:00
10:30 PM,62.6,57.2,82,30.06,-9999.0,West,3.5,-,N/A,,Clear,260,2013-08-04 12:30:00
11:00 PM,64.4,57.2,77,30.06,-9999.0,SSE,11.5,-,N/A,,Clear,150,2013-08-04 13:00:00
11:30 PM,62.6,57.2,82,30.06,-9999.0,WSW,4.6,-,N/A,,Clear,250,2013-08-04 13:30:00